Theta_e
312 312 313 313 313 312 312 311 309 308 308 308 307 308 307 307 307 306 307 308 308 309 306 306 306 306 306 305 305 306 308 309 311 312 317 320 310 310 312 307 320 327 323 326 326 328 332 329 329 337 346 347 347 350 351 352 354 360 363 364 361 361 367 368 369 368 366 368 365 364 363 363 364 363 361 362 362 358 358 356 351 350 350 349 350 351 351 351
312 312 312 313 313 312 312 311 310 309 308 307 307 308 308 308 307 307 307 307 309 309 307 306 307 307 307 307 307 308 311 311 314 318 324 320 315 312 309 313 323 327 325 327 326 327 330 331 329 334 344 344 345 350 352 352 354 358 362 363 362 365 369 366 368 367 365 368 365 363 364 363 364 362 362 364 362 360 360 356 352 352 351 349 350 350 351 351
312 311 312 312 312 311 311 310 309 309 308 307 308 308 309 308 308 307 307 307 308 309 308 308 308 309 309 309 309 310 312 315 325 336 331 320 316 310 312 322 328 325 325 325 323 322 322 326 329 331 339 340 340 348 352 354 355 357 360 364 367 365 363 365 368 366 364 365 364 365 365 364 363 360 362 363 362 362 359 355 354 354 352 350 350 350 351 352
312 311 311 312 311 311 310 308 308 309 309 308 308 309 309 309 309 308 307 308 308 309 308 309 310 310 310 310 310 313 315 323 336 335 328 320 314 310 317 327 330 328 326 322 320 319 319 324 329 331 336 338 336 341 346 350 355 358 359 364 366 360 361 366 366 363 362 362 364 365 364 365 362 359 363 362 361 363 358 353 354 353 352 350 349 349 351 352
311 311 311 311 311 310 309 308 308 310 309 309 309 310 310 309 310 309 308 308 308 309 308 309 310 310 312 311 311 315 320 331 332 328 326 317 311 312 319 328 328 327 326 321 320 321 323 327 331 333 336 340 338 339 343 342 347 353 355 359 358 355 358 366 366 362 361 360 364 365 364 363 360 360 363 361 361 362 356 352 352 351 350 350 349 349 352 352
311 311 310 310 310 310 309 309 309 310 310 310 310 310 310 310 310 310 309 308 308 309 309 310 310 311 312 311 313 317 323 329 327 326 326 316 313 314 319 326 324 322 323 322 320 321 326 330 333 336 337 339 339 342 344 339 342 348 350 349 351 352 354 364 365 361 360 362 365 364 362 361 359 362 362 360 362 363 357 351 350 350 349 349 349 350 352 352
311 311 310 310 310 310 310 310 310 310 310 310 310 310 310 310 310 310 309 308 308 309 309 310 311 312 312 311 316 320 324 330 325 325 326 318 316 317 319 324 322 319 320 320 319 320 326 330 335 337 337 339 340 342 342 341 343 347 350 346 346 347 350 362 363 360 360 362 364 362 362 361 360 364 361 361 365 366 360 351 349 350 349 349 349 350 351 351
311 311 311 311 311 310 310 310 310 310 310 310 311 311 311 311 311 310 310 309 309 309 309 310 311 312 311 311 318 323 327 332 326 324 325 319 319 320 321 321 320 320 317 317 318 319 324 329 334 335 337 340 340 340 339 342 345 347 348 345 344 342 348 360 361 360 359 359 362 361 363 362 362 363 361 363 364 364 358 350 350 349 349 349 349 350 351 351
311 311 311 311 310 310 310 311 311 310 311 311 311 311 311 311 311 311 310 309 309 309 309 309 310 311 312 314 319 325 326 326 324 324 324 321 320 321 322 321 320 318 317 317 317 319 323 326 330 334 337 336 335 336 337 342 347 348 345 345 344 340 350 361 361 361 359 360 361 360 364 365 363 362 361 362 361 361 356 350 350 349 349 350 349 350 351 351
311 311 311 311 311 310 311 310 311 311 311 311 311 311 311 311 312 311 310 309 309 311 310 309 311 311 314 317 321 325 322 321 323 325 323 322 320 319 322 323 320 317 317 316 315 319 323 325 327 330 332 333 333 334 335 340 345 340 337 340 337 335 349 360 361 360 359 361 361 362 366 366 362 362 364 360 357 358 356 352 351 350 350 350 349 350 350 350
311 311 311 311 311 310 310 311 311 311 311 311 311 311 312 312 312 311 311 310 310 310 309 310 312 312 314 318 324 326 321 320 324 325 324 323 321 319 321 323 322 319 318 316 314 317 323 324 324 328 330 332 332 331 332 334 336 332 332 332 331 342 354 359 361 360 361 362 360 362 364 363 359 363 367 359 355 356 354 353 352 351 351 350 350 350 350 350
311 311 311 311 310 310 311 311 311 311 312 311 312 311 312 313 313 313 311 310 311 310 310 311 313 313 315 320 326 324 321 323 325 325 325 323 322 322 322 323 323 321 319 318 316 316 320 322 323 327 331 330 330 332 331 329 330 329 332 331 335 355 360 358 361 359 362 362 358 359 361 362 362 362 363 356 355 355 352 353 352 351 351 351 351 350 350 349
311 311 311 311 310 310 311 311 311 312 312 312 312 312 313 314 313 314 312 311 311 310 311 314 316 316 319 329 327 318 320 325 325 325 327 325 323 324 323 323 324 323 322 319 318 318 319 320 321 325 327 327 328 330 329 329 329 329 332 328 335 361 364 358 361 359 361 359 356 357 357 364 365 359 358 355 355 354 352 353 352 352 351 350 350 350 350 349
311 311 311 311 310 310 311 311 311 312 312 312 313 314 315 315 315 314 313 312 312 311 313 315 317 319 324 332 325 319 323 325 325 325 326 326 324 325 325 325 326 324 322 320 319 318 318 317 320 323 324 326 327 327 329 330 330 330 331 328 336 351 356 358 359 361 364 359 356 355 354 364 366 358 357 356 355 354 353 353 352 351 351 350 350 349 349 348
311 310 311 310 310 311 311 312 312 312 312 313 314 315 316 316 316 315 313 313 312 311 314 316 317 321 331 336 325 321 323 324 325 323 323 326 326 327 326 325 326 324 322 321 319 318 317 317 319 323 325 327 328 328 334 335 336 334 326 330 335 332 341 358 359 361 364 359 357 354 355 367 365 358 358 355 354 354 353 353 352 351 351 350 350 350 349 348
310 310 310 310 311 311 311 312 312 312 312 313 315 316 317 318 317 316 314 313 312 312 316 320 319 321 333 336 324 322 323 323 322 320 321 324 325 327 327 326 326 324 322 321 320 318 318 317 321 325 326 329 332 333 338 338 341 342 329 326 327 323 341 361 357 359 363 360 360 357 361 370 363 356 358 356 354 354 353 353 353 351 351 350 348 349 349 347
310 310 310 310 310 311 311 312 312 312 312 314 316 317 317 317 316 314 313 313 313 315 318 322 321 320 327 327 322 321 323 320 318 318 320 323 324 323 326 328 326 323 321 320 320 319 319 321 326 332 330 330 335 337 337 334 334 339 333 327 322 325 346 357 356 361 361 361 363 360 364 367 360 357 358 355 355 353 353 352 352 351 350 349 348 348 349 348
309 309 310 310 310 311 312 312 313 312 313 314 316 317 317 315 316 315 315 314 315 317 321 323 322 321 321 321 319 319 320 318 316 317 317 322 324 324 325 326 322 321 321 322 321 320 323 326 330 337 336 330 331 336 336 335 333 331 329 326 322 323 336 347 355 363 362 363 366 363 364 364 359 358 358 356 355 354 353 352 351 351 350 350 348 347 349 348
309 310 310 310 311 311 311 312 312 313 314 315 316 317 317 317 318 317 317 317 318 323 327 327 327 323 320 322 321 319 319 316 315 315 315 320 323 321 322 322 322 323 325 328 325 324 328 332 333 335 337 335 332 335 339 339 335 328 326 325 322 322 323 331 339 349 360 364 366 365 364 364 361 359 358 356 354 354 353 353 351 351 351 350 348 347 347 348
309 310 310 311 311 311 312 312 312 313 315 315 315 315 316 317 320 319 317 320 322 321 322 327 331 327 321 322 322 318 315 314 313 314 314 317 318 316 316 320 326 328 330 331 328 328 331 334 337 336 338 341 337 335 338 335 331 328 328 326 324 324 324 327 326 333 357 364 364 366 364 364 362 359 358 355 355 355 354 353 353 352 351 351 349 348 347 347
310 311 311 311 311 311 312 312 313 314 315 314 314 316 315 314 316 316 314 318 319 315 317 323 327 324 319 319 318 315 314 314 313 313 315 315 315 314 315 323 330 330 329 331 330 329 332 335 337 339 340 341 336 334 332 330 329 328 328 327 324 324 325 330 327 326 349 362 362 364 363 363 362 358 358 356 355 356 354 353 353 352 352 351 351 349 348 346
311 311 312 312 312 312 312 312 313 314 315 315 315 316 316 313 314 313 312 316 316 312 314 317 316 316 316 315 315 314 313 314 313 313 316 315 315 314 318 326 330 331 327 328 333 332 333 335 335 338 337 334 332 330 329 328 329 328 328 325 324 327 328 328 326 325 343 360 362 363 362 361 360 358 357 357 356 355 354 353 352 352 352 351 350 350 349 348
311 312 312 313 313 312 312 312 314 315 315 316 315 315 315 315 315 312 311 313 314 313 313 315 314 315 318 314 313 314 314 313 313 314 316 315 315 315 322 327 328 329 327 328 335 334 333 335 336 336 331 331 331 329 328 329 328 329 328 325 325 328 325 325 326 326 341 359 364 362 359 361 361 358 357 356 356 355 353 353 353 353 352 350 350 349 349 349
312 312 313 313 313 313 313 313 314 315 315 315 316 315 316 316 315 312 314 314 314 315 315 314 315 316 318 314 311 313 313 313 313 315 318 317 316 316 321 326 327 328 328 330 335 334 335 334 333 333 331 331 332 331 329 328 329 332 330 326 327 327 324 326 326 323 330 341 350 355 355 363 365 358 360 357 354 356 354 354 355 354 353 351 350 349 349 349
313 313 313 314 314 313 312 313 314 315 315 315 315 316 316 316 314 313 317 318 316 317 316 311 313 314 314 311 310 312 312 313 313 314 317 317 317 317 317 321 325 328 328 329 330 331 333 330 327 329 331 330 330 332 331 328 329 330 331 329 328 330 328 328 325 321 321 320 332 346 342 352 364 358 359 360 357 358 356 355 355 354 354 352 351 349 349 349
313 314 314 315 315 313 313 314 314 314 316 316 315 316 316 316 316 313 319 323 316 316 317 311 312 313 311 310 310 312 313 313 313 312 317 318 317 317 315 316 321 325 327 327 328 330 329 326 326 328 330 329 329 329 331 330 327 325 332 332 328 330 329 328 324 320 320 318 328 344 333 336 356 359 359 361 359 360 356 355 354 353 353 352 351 350 348 349
314 314 314 315 315 313 315 316 314 314 317 316 315 316 315 316 314 311 321 329 319 314 316 312 311 312 310 310 310 313 314 313 313 313 315 317 315 315 316 316 318 318 321 326 326 326 325 322 325 327 327 328 327 327 329 329 327 326 331 331 329 330 328 328 323 318 323 319 329 352 341 333 346 356 360 362 361 361 358 356 355 353 353 353 351 350 348 348
315 315 315 316 315 313 314 314 313 316 316 315 315 316 316 316 314 315 325 328 320 313 313 311 311 311 311 310 311 313 313 313 315 313 312 313 314 315 317 317 319 318 317 324 327 324 320 319 325 327 325 326 328 330 329 327 327 330 330 328 329 329 327 327 320 319 324 317 324 349 347 336 346 358 361 363 361 361 362 357 355 354 352 353 352 350 349 348
316 317 317 315 314 313 314 313 314 315 315 314 316 316 316 314 315 323 327 322 315 312 311 311 311 311 312 312 312 314 313 312 314 313 313 313 312 314 317 315 318 318 314 318 325 321 315 318 323 323 322 325 327 328 327 326 328 328 327 326 325 325 326 326 321 320 320 315 319 335 341 338 348 356 356 359 360 359 361 359 356 354 352 352 352 350 350 348
317 318 318 315 314 314 314 313 313 315 315 315 316 316 315 318 326 331 326 317 313 312 311 312 312 311 313 314 313 314 313 313 314 314 313 313 312 312 314 313 315 318 318 318 319 318 316 319 321 319 317 319 321 321 322 325 325 324 325 324 322 326 328 332 337 325 316 319 319 325 337 339 343 352 354 356 360 358 361 359 356 356 353 352 352 350 349 349
318 319 319 316 316 315 314 314 315 315 316 317 316 316 316 322 334 333 322 315 313 312 312 312 314 313 313 313 313 313 313 312 314 315 314 312 311 311 313 315 316 320 322 319 317 316 317 318 317 317 317 315 315 317 317 320 320 321 327 323 321 329 329 328 333 321 313 323 324 323 336 337 338 348 346 345 349 348 356 359 357 357 354 353 352 350 350 348
319 320 320 318 317 316 316 317 317 317 319 317 317 322 324 323 325 324 318 315 312 312 312 313 313 313 312 313 312 312 313 313 312 313 313 311 311 310 312 312 313 316 318 315 316 317 315 315 314 316 319 315 314 318 317 316 318 320 327 325 320 325 324 320 324 320 317 325 323 322 334 338 339 341 334 334 336 335 344 352 353 356 355 353 352 350 350 349
320 319 320 319 318 318 318 319 318 319 320 318 319 326 329 325 321 319 318 314 312 312 312 313 312 311 312 313 312 311 312 312 312 312 312 311 310 311 311 310 310 314 317 315 316 316 314 315 315 314 317 315 313 318 317 316 318 318 322 323 320 322 321 320 325 323 319 321 318 319 329 334 333 331 330 334 335 334 339 343 345 349 352 353 353 351 350 349
320 318 318 318 318 317 318 318 319 320 318 315 319 323 321 319 319 320 318 313 312 313 311 311 312 312 313 312 311 312 313 312 311 311 312 311 312 312 311 310 310 312 316 317 316 316 316 316 314 312 313 313 314 315 313 313 315 316 320 323 323 326 325 323 325 323 318 319 317 315 322 326 322 325 330 328 333 341 342 343 343 343 347 352 353 352 350 350
319 317 317 316 316 316 317 317 318 319 316 312 315 318 315 315 317 317 316 313 313 313 311 310 312 314 313 312 311 311 314 314 311 310 311 310 312 312 311 311 310 310 315 316 315 317 318 314 311 313 313 311 314 314 312 314 315 315 320 320 319 323 325 324 326 327 322 319 318 315 319 324 321 324 328 324 333 345 344 343 343 342 343 349 353 353 351 350
318 316 316 315 316 315 315 317 317 317 315 312 313 314 313 312 312 312 313 313 311 311 313 313 312 313 314 313 312 311 312 313 312 313 313 310 311 311 310 311 310 310 313 315 314 315 318 315 311 314 316 313 312 314 313 313 316 319 319 318 317 318 321 321 322 328 325 317 318 319 321 324 325 324 323 324 338 348 345 343 342 342 342 345 350 353 351 351
318 317 316 315 316 315 315 317 316 315 315 314 316 315 314 311 310 311 312 312 310 309 315 316 311 311 313 312 312 312 313 313 312 314 312 311 312 310 310 312 311 310 311 313 313 312 315 316 313 312 315 315 312 312 314 312 313 320 319 316 317 316 320 322 321 326 326 317 318 323 324 324 326 326 322 326 342 348 345 344 342 342 342 343 345 348 350 352
318 318 317 315 315 315 316 316 314 315 316 318 321 320 314 311 310 309 310 311 310 310 314 314 311 310 311 313 311 311 313 314 313 314 313 312 312 310 310 311 312 311 310 312 315 313 313 314 315 314 313 314 313 312 316 315 313 317 316 314 317 319 323 325 321 320 321 321 320 322 327 326 322 323 321 325 343 348 344 344 344 342 342 341 342 344 347 350
318 320 319 314 314 315 316 315 313 314 315 317 323 322 314 311 311 309 309 310 310 311 312 311 311 311 310 312 311 310 313 313 312 314 314 313 312 311 310 310 312 312 311 313 314 314 315 314 314 316 312 311 314 314 315 315 313 314 312 312 315 319 321 321 322 321 321 326 324 322 328 329 322 321 320 326 341 347 344 343 343 343 341 339 340 342 344 348
319 324 320 313 314 316 314 313 312 314 316 316 318 317 312 311 310 309 310 311 310 311 311 311 312 312 311 311 311 311 312 312 312 312 313 312 311 312 310 310 311 311 313 314 312 314 318 316 314 316 313 311 313 313 312 313 312 311 311 311 311 315 319 320 321 320 323 330 333 333 332 326 322 320 320 330 342 344 342 340 339 340 340 339 338 340 342 345
320 324 319 313 313 315 313 313 316 317 317 315 313 313 314 313 310 310 311 311 311 311 310 312 313 312 312 312 312 312 312 313 312 312 313 312 312 314 312 310 310 311 315 317 313 314 318 318 318 316 312 311 311 311 310 311 310 309 310 310 309 312 320 327 324 318 323 329 331 336 334 324 322 319 320 335 342 340 342 338 336 336 336 337 337 337 340 343
323 322 317 313 312 312 311 314 321 320 315 312 311 311 314 314 311 310 312 311 312 312 311 312 313 312 312 312 313 314 315 315 313 313 313 312 312 313 312 312 312 312 316 316 314 317 320 319 321 317 312 311 310 309 311 310 310 310 309 309 309 310 315 325 323 317 324 326 325 333 333 327 326 318 319 338 340 337 341 339 336 336 334 335 336 335 337 339
332 323 315 312 312 312 312 315 319 318 314 312 310 310 311 312 310 311 312 313 313 312 313 312 313 314 313 312 314 315 315 315 313 313 314 313 313 312 312 315 315 315 317 315 313 318 318 316 318 321 321 320 315 311 312 311 310 311 311 309 310 309 309 315 319 321 325 322 322 332 330 327 328 318 319 336 338 336 340 338 337 335 333 334 333 334 336 336
335 326 323 317 310 312 316 317 318 318 316 314 312 312 312 310 311 311 311 313 313 313 314 312 312 314 312 312 315 314 314 317 315 313 315 315 314 314 315 316 316 317 317 316 315 314 312 313 319 322 322 321 318 316 316 314 312 311 311 309 309 309 309 312 316 325 329 321 320 329 329 328 327 319 322 335 336 336 337 336 336 334 332 333 332 333 334 334
328 325 327 321 311 313 317 316 317 316 316 316 313 313 314 312 311 311 310 312 311 312 314 313 312 314 314 313 314 313 314 317 316 315 316 316 315 315 316 315 316 316 315 317 321 319 314 315 320 323 322 320 318 318 318 317 313 312 311 310 310 310 309 312 317 326 329 320 318 325 326 325 320 314 325 335 335 336 336 334 335 333 333 333 332 333 333 332
326 326 327 325 316 314 314 315 317 319 319 321 318 313 314 314 312 311 311 312 311 311 313 312 313 314 314 315 316 315 315 316 316 318 318 316 315 315 315 316 317 317 315 316 323 326 321 316 317 323 324 320 319 318 318 316 314 312 311 310 311 311 310 314 319 323 321 317 320 328 328 321 313 315 329 335 334 335 335 333 333 332 333 333 332 333 332 331
327 324 322 324 321 319 318 315 318 321 318 319 318 313 313 314 313 313 312 312 311 312 313 313 314 315 314 316 316 316 317 317 318 320 317 315 317 316 315 315 316 317 316 315 321 328 326 318 316 319 316 315 318 318 315 315 312 310 311 311 311 312 312 313 316 316 315 316 324 334 330 318 312 322 333 335 333 334 333 332 332 331 332 332 332 332 332 331
323 321 319 319 317 320 321 315 315 319 319 321 320 314 314 315 314 314 314 313 312 313 314 315 315 316 316 318 318 317 318 319 318 317 315 315 317 317 315 313 314 317 319 316 319 326 325 317 313 315 313 312 315 314 312 314 312 310 312 312 312 313 312 311 313 313 313 315 319 325 324 315 316 327 334 332 332 332 331 330 330 329 331 331 331 332 331 331
323 322 320 319 317 318 320 317 317 317 320 326 325 316 316 316 315 314 312 313 315 314 316 316 315 316 319 323 325 320 318 319 316 315 316 315 314 315 314 313 313 316 319 317 316 319 321 318 314 314 314 313 313 313 312 313 312 312 313 312 311 312 312 311 313 313 313 314 316 317 317 317 320 328 332 331 330 329 328 329 328 328 330 330 330 331 331 331
324 321 321 326 325 321 323 323 322 319 319 324 322 316 317 317 316 315 313 314 314 313 315 316 315 316 318 323 327 319 316 321 317 314 316 315 314 315 314 314 313 315 318 317 314 315 318 317 318 320 317 313 313 315 313 312 312 312 312 313 311 311 312 312 313 315 315 318 322 323 324 325 325 327 329 330 329 328 327 328 328 327 328 329 329 330 330 332
317 314 318 328 328 321 322 323 323 322 321 322 320 316 318 317 315 315 313 312 314 313 316 316 316 317 318 320 321 315 316 323 320 315 317 318 317 317 315 314 312 313 317 316 314 318 320 316 318 323 321 315 314 315 314 313 311 311 311 313 311 311 312 313 314 314 316 322 329 331 332 332 328 325 326 328 329 328 327 328 328 327 327 328 329 329 329 331
316 315 316 324 324 318 320 322 322 321 318 318 319 317 317 317 316 317 314 312 314 314 314 316 318 320 319 318 318 314 316 321 319 316 316 316 316 316 315 316 314 313 318 317 313 318 322 318 318 321 321 319 317 317 316 312 311 314 314 311 310 312 313 313 314 320 325 329 333 333 331 329 326 324 324 325 327 327 326 327 328 327 327 327 328 329 329 329
Wind_Speed
20 20 19 19 19 19 19 18 18 17 17 16 16 15 14 13 13 13 14 15 16 17 14 13 12 10 9 10 9 9 10 10 11 9 9 10 10 10 7 12 17 18 21 21 20 17 10 7 7 8 8 4 0 1 2 3 2 1 0 1 1 1 2 3 4 3 2 4 6 7 6 5 6 3 1 1 4 6 5 4 6 6 8 12 18 25 27 26
20 21 20 20 19 19 19 19 18 17 17 17 16 16 15 14 13 13 13 13 14 15 13 12 11 9 8 9 8 8 10 11 10 10 11 8 5 12 13 14 18 23 25 23 24 21 12 6 7 8 5 2 1 2 2 3 3 2 0 0 2 3 3 3 4 5 3 5 7 6 5 5 6 5 2 2 5 6 5 6 8 10 11 15 22 26 24 24
20 21 21 20 20 20 19 19 18 18 17 16 17 17 17 16 15 13 13 12 13 14 12 11 9 7 7 8 8 9 10 8 6 7 5 3 10 17 18 18 19 25 26 24 25 22 17 14 13 9 4 2 1 2 3 2 3 3 1 0 4 4 3 3 3 5 4 7 10 7 5 4 4 4 2 4 7 6 6 7 9 11 12 14 18 22 22 22
21 21 21 21 21 20 20 19 18 18 18 17 17 17 17 17 16 14 13 11 11 12 10 8 7 6 7 8 8 9 8 3 2 4 5 2 14 22 22 21 22 25 23 22 21 17 17 18 12 6 4 3 1 1 2 3 1 2 3 3 4 2 3 3 1 3 5 8 10 7 6 5 4 3 3 8 7 4 6 7 9 13 16 17 17 19 20 20
21 21 21 21 21 20 20 19 19 19 19 19 19 19 18 18 17 15 13 11 10 10 9 5 5 6 7 9 7 8 5 1 2 3 5 1 18 25 23 22 22 22 20 20 17 14 17 15 8 3 3 3 2 2 2 5 2 2 3 5 6 4 4 3 1 4 7 7 6 8 8 7 5 3 4 10 8 4 5 7 10 14 16 18 18 18 18 17
22 21 21 21 21 20 20 20 20 20 21 21 21 21 19 18 18 16 13 10 9 9 7 3 5 6 7 9 6 5 2 1 3 2 1 4 20 25 23 23 21 19 18 20 16 13 13 10 6 4 2 3 3 4 3 4 3 3 3 4 7 7 6 3 4 6 8 8 7 7 6 7 7 4 5 8 5 2 4 9 12 14 17 21 20 18 16 15
21 21 20 21 21 20 20 21 21 21 22 23 22 22 21 20 18 16 13 10 8 8 5 3 5 5 7 7 4 3 2 4 5 4 3 8 20 23 21 21 22 20 19 19 14 10 9 8 7 5 4 3 3 5 3 3 5 4 5 5 7 7 7 5 6 7 8 9 7 6 6 8 9 6 6 6 3 3 5 10 13 14 18 20 18 15 15 15
21 21 20 21 21 21 21 22 23 23 24 24 24 23 22 20 18 16 12 9 8 7 4 3 5 4 5 4 1 3 1 5 4 7 6 12 20 22 20 19 22 22 19 18 14 9 7 8 7 4 4 3 3 3 3 2 3 6 7 7 5 5 6 6 6 7 8 6 5 7 8 7 6 5 6 7 4 4 6 11 14 14 16 15 15 15 14 13
21 21 21 21 21 21 22 23 24 24 25 25 25 24 23 20 18 15 11 9 7 6 4 4 5 3 3 1 2 1 2 2 4 8 8 15 20 21 20 17 21 24 17 15 16 12 7 7 6 4 5 4 2 2 2 1 2 6 8 7 5 7 5 7 7 8 7 5 6 8 6 3 3 5 5 6 5 5 7 12 14 15 15 13 13 14 14 13
22 22 22 22 22 22 23 24 25 25 26 26 26 25 23 20 16 13 9 7 6 5 3 5 4 1 1 2 4 2 2 1 3 8 9 15 20 20 20 17 21 23 16 12 14 12 6 5 6 4 3 2 2 2 1 2 2 4 5 6 7 9 5 9 9 8 6 5 7 8 5 2 1 2 3 5 7 7 9 13 15 16 15 14 13 12 13 14
23 23 23 23 23 23 24 25 26 26 27 27 27 25 23 19 15 11 8 6 6 4 4 5 3 2 4 3 4 3 1 3 5 10 8 13 18 20 21 19 21 22 17 10 11 13 8 7 7 3 1 1 1 2 3 3 3 6 5 5 7 6 1 8 9 9 6 4 6 7 6 2 1 2 3 8 8 8 12 14 15 16 14 14 14 12 11 12
24 24 24 25 24 25 25 26 27 27 27 27 27 25 22 18 13 9 7 6 5 4 5 4 3 5 3 2 3 6 2 4 5 10 9 11 14 16 19 21 20 21 19 11 10 16 12 8 6 3 1 1 0 2 4 3 4 6 3 3 6 6 3 5 6 8 5 4 6 8 5 2 5 4 2 9 9 8 13 13 14 15 13 13 13 11 10 12
25 25 26 26 26 27 27 27 28 28 28 27 26 24 21 16 11 7 6 6 5 6 6 5 5 5 3 0 5 6 1 3 4 8 10 11 10 11 15 20 19 19 20 15 13 18 16 8 3 3 2 1 0 2 4 5 4 4 1 1 2 6 2 4 5 6 4 4 9 7 1 5 8 6 1 9 11 10 13 13 13 13 11 12 11 10 9 12
26 26 26 27 27 28 28 28 28 28 28 26 25 23 17 12 7 5 7 7 7 8 7 6 6 5 2 3 4 3 2 2 5 9 12 12 9 6 10 16 17 17 17 13 9 14 20 11 2 2 2 1 1 3 5 4 3 2 1 2 1 2 3 3 4 7 4 3 9 4 2 4 6 7 4 7 12 12 13 13 13 12 11 11 11 11 10 12
27 27 27 28 28 29 29 29 29 28 27 25 23 19 12 8 5 4 8 8 9 10 7 6 6 4 1 4 3 2 3 2 6 9 11 14 10 5 9 14 14 15 14 10 6 9 19 11 2 1 2 1 0 3 4 3 3 2 0 2 2 1 2 1 4 8 4 3 8 4 2 4 3 7 8 7 12 13 12 13 13 13 13 12 10 11 10 10
28 28 28 29 29 29 29 29 28 28 26 23 19 13 9 7 2 3 7 9 10 9 6 5 5 4 2 2 1 1 3 2 3 5 8 14 12 6 10 13 10 11 11 10 7 6 14 10 2 2 1 2 1 0 2 4 4 3 2 1 2 2 1 0 2 5 4 5 7 5 2 2 2 5 9 8 12 13 12 12 14 13 13 12 10 10 10 10
29 29 29 29 29 29 28 28 27 27 25 21 14 8 8 8 7 9 10 11 10 7 4 3 3 2 1 3 1 1 2 3 4 3 8 13 13 8 11 10 6 8 6 7 7 3 8 6 2 2 1 1 1 2 2 2 2 3 2 1 2 1 1 1 2 4 5 6 6 7 5 3 2 3 9 9 11 13 12 13 14 13 12 11 10 10 11 11
30 30 30 30 29 29 28 27 26 25 22 17 10 8 11 12 11 13 15 13 9 5 2 1 1 1 2 3 1 2 5 6 7 3 7 11 14 12 9 7 7 9 5 2 3 2 3 2 1 2 1 1 2 3 3 3 2 1 2 3 2 3 1 2 2 4 7 5 6 7 7 9 4 4 7 9 11 13 13 13 13 13 13 11 11 11 11 12
31 31 30 30 29 29 27 25 25 22 19 14 7 8 10 10 8 8 11 10 4 1 1 1 1 1 2 3 3 6 9 8 6 3 8 10 13 11 6 8 9 8 4 3 2 3 3 2 2 3 2 2 3 4 5 5 5 5 3 4 2 2 3 2 3 4 8 6 5 7 8 11 7 5 7 8 10 12 11 11 11 11 12 11 10 11 12 13
31 31 30 29 28 28 26 24 23 17 14 13 5 6 4 4 3 3 2 2 3 3 1 2 3 1 3 4 5 8 9 5 3 2 8 10 13 10 4 5 6 4 3 4 3 2 4 3 2 4 5 4 5 6 5 4 4 4 3 3 2 1 4 4 4 5 7 6 5 9 9 11 7 5 8 9 9 10 11 11 11 11 11 11 11 11 13 13
32 31 30 28 27 27 24 22 20 12 10 11 6 4 2 2 2 2 4 3 4 4 4 5 4 4 6 6 5 4 4 2 2 1 6 9 10 9 1 3 5 3 1 4 4 2 3 5 4 5 7 6 5 5 3 3 2 2 2 2 1 1 4 5 5 4 5 6 6 8 7 9 8 5 7 9 11 11 13 14 14 14 13 11 12 13 12 11
33 31 29 27 26 24 22 21 15 7 7 9 8 5 2 3 4 3 2 3 6 4 3 4 2 5 8 9 9 3 2 2 3 2 4 7 5 4 1 4 6 2 1 2 4 3 2 3 5 6 6 4 3 4 4 2 2 2 2 2 0 2 4 5 5 4 2 5 4 4 6 9 9 7 8 11 13 12 14 15 14 14 14 12 13 13 12 10
32 30 27 26 25 22 21 17 8 4 6 7 8 5 2 8 9 1 2 0 6 4 1 2 2 3 6 5 4 4 4 1 1 2 4 6 3 3 4 4 5 3 2 3 5 5 3 4 6 6 5 5 1 3 5 3 1 2 2 2 2 2 1 2 4 5 2 5 3 4 4 7 6 5 7 11 12 11 11 12 10 10 12 13 14 12 12 13
31 28 26 25 24 21 19 11 3 3 4 4 7 6 8 10 7 3 2 1 3 4 3 4 3 3 3 2 2 5 3 2 3 2 3 6 3 2 3 3 4 3 1 4 6 5 4 6 4 5 6 6 2 1 5 2 2 2 3 4 3 2 3 4 4 4 2 3 3 3 1 5 4 6 7 8 10 10 9 10 9 9 11 11 11 11 12 13
30 28 26 25 22 20 15 4 1 5 3 4 4 7 11 9 4 3 3 2 2 4 2 2 1 2 3 2 1 2 1 0 2 3 2 6 5 3 2 2 3 2 3 4 6 3 4 6 3 5 4 5 4 2 3 5 1 3 3 7 7 5 5 5 3 5 5 4 4 2 2 5 4 6 7 6 9 10 9 11 13 12 11 10 10 11 12 12
30 27 26 24 21 18 9 2 3 7 1 3 5 9 10 8 3 2 3 3 2 3 1 1 0 1 2 2 0 1 4 1 2 2 3 3 4 4 3 1 1 3 5 4 3 2 2 3 3 5 4 5 4 3 3 6 4 2 4 7 9 8 6 6 1 2 1 2 4 1 3 4 4 3 6 6 9 11 10 13 15 13 12 12 12 12 12 12
28 26 25 22 18 15 5 1 6 6 2 1 7 10 10 7 1 3 3 5 2 2 1 1 1 1 1 1 1 4 3 3 2 5 6 4 2 2 4 2 1 1 3 4 2 2 2 1 1 4 4 4 3 3 5 7 6 3 5 6 8 8 6 5 4 3 3 2 4 2 4 1 4 4 4 6 8 10 11 14 15 14 14 14 14 13 13 13
28 26 23 18 14 12 5 3 6 2 2 5 8 10 11 4 2 3 5 4 1 1 0 1 2 1 2 2 3 3 2 2 2 2 5 9 7 2 3 2 5 3 2 5 2 4 2 2 3 4 3 3 4 5 7 8 5 5 6 6 7 7 7 4 5 4 2 2 4 4 3 1 5 5 2 6 9 11 14 15 14 14 15 15 15 15 15 14
27 24 20 15 11 9 6 5 4 1 4 8 9 12 10 2 2 3 4 3 2 2 0 1 2 2 3 3 4 3 2 2 3 2 6 10 10 5 3 1 4 4 3 6 4 4 1 1 5 5 3 3 5 5 7 10 6 4 5 5 3 4 4 4 5 3 1 2 4 5 3 2 4 5 2 5 7 11 13 12 11 13 14 15 15 15 15 13
25 21 17 13 9 6 6 5 3 3 7 9 11 13 7 1 3 5 3 2 2 1 1 2 2 2 3 4 4 5 5 4 3 4 5 6 9 8 3 1 4 5 2 4 2 3 3 2 2 4 1 4 5 3 5 9 7 1 4 4 4 3 3 4 2 3 3 2 6 7 6 4 2 5 3 3 4 8 9 8 9 11 12 15 16 15 16 14
22 17 14 12 8 4 4 3 4 7 9 10 13 11 3 2 3 5 3 1 1 2 2 2 2 3 5 5 3 5 6 5 6 6 5 4 8 10 6 4 4 5 4 5 2 3 6 5 2 1 1 3 2 1 1 0 1 2 2 4 4 2 3 4 4 2 3 4 6 4 5 5 1 4 3 5 8 7 6 9 11 14 15 16 16 16 16 15
19 14 12 11 8 5 3 4 7 9 10 12 11 5 3 3 4 3 1 2 2 2 2 2 3 3 4 6 5 5 5 4 5 6 5 4 7 7 6 4 2 2 2 1 1 4 4 2 4 5 3 7 5 2 2 5 5 4 4 5 4 1 1 1 1 1 3 5 4 1 4 3 3 2 4 8 10 11 8 6 8 13 16 15 15 16 15 14
17 14 11 9 8 7 6 7 10 10 11 10 6 4 5 5 3 2 3 2 1 2 2 1 3 4 5 5 5 5 6 4 5 5 4 3 6 4 4 6 4 2 3 1 1 4 2 2 8 8 5 7 6 3 1 2 4 3 3 5 4 3 3 2 3 0 1 4 4 2 2 2 2 1 6 9 9 10 10 9 8 8 11 12 13 13 14 14
15 14 13 11 10 10 10 10 10 9 8 5 3 5 7 5 1 3 3 2 2 3 3 2 3 6 7 5 2 2 6 5 5 6 4 4 5 4 5 9 10 4 2 3 2 2 3 0 6 5 3 6 5 2 1 3 1 2 3 5 4 4 4 3 3 3 3 3 3 3 2 3 3 3 4 7 7 9 12 12 13 11 8 8 11 10 12 13
11 11 12 12 13 13 14 13 10 8 6 4 6 6 6 3 2 2 2 3 2 3 4 4 5 6 6 5 4 3 4 3 4 7 7 5 4 4 4 6 9 6 3 3 2 1 4 1 5 4 3 4 5 3 1 3 1 2 1 4 3 3 4 2 3 5 4 2 0 1 3 2 4 4 6 10 9 13 16 16 16 16 14 7 7 11 11 12
7 8 11 14 16 17 16 13 11 10 5 5 7 6 3 1 2 1 2 2 2 2 4 5 7 6 4 4 5 7 5 4 3 4 5 4 4 5 4 4 5 6 3 3 1 2 3 0 6 7 5 3 3 4 2 4 2 1 3 2 3 3 4 3 1 0 3 5 2 1 1 4 1 0 11 15 14 18 19 18 17 15 16 13 4 7 11 12
5 4 8 16 23 22 15 14 15 11 4 6 8 4 1 0 1 2 2 2 2 1 3 4 4 3 3 3 4 7 5 4 4 3 3 3 3 5 6 4 3 5 3 2 2 1 3 1 5 5 5 6 4 2 1 3 2 2 2 2 3 2 3 3 1 2 4 4 1 2 3 5 4 1 9 16 17 20 19 16 17 16 16 15 12 9 8 11
5 3 4 17 26 21 14 16 15 7 4 7 8 4 2 2 3 2 3 3 2 3 5 3 2 2 2 3 3 6 4 2 3 3 3 3 2 3 4 3 3 6 6 2 3 1 3 1 4 3 3 8 7 4 2 6 5 3 2 1 1 3 1 1 2 2 1 3 1 3 2 4 5 3 9 14 15 16 15 15 16 17 17 15 14 15 13 10
6 3 3 18 25 16 13 14 10 7 7 6 5 3 1 2 4 5 4 2 2 4 5 2 2 3 3 3 2 4 6 3 2 2 2 2 1 2 4 2 3 6 7 4 3 1 2 3 2 6 5 5 6 6 3 7 7 4 4 4 3 2 2 1 2 3 3 3 3 1 3 3 2 4 8 11 12 12 12 14 15 14 15 14 13 14 15 12
5 3 3 20 22 9 13 17 11 7 6 4 2 2 1 1 4 7 7 6 4 3 3 3 3 3 3 4 3 3 5 4 3 3 2 2 1 1 4 3 3 5 5 5 5 1 2 3 1 7 8 4 3 3 2 3 5 5 5 5 4 3 1 2 2 2 2 3 3 3 3 1 1 4 5 8 11 10 10 12 13 13 14 14 14 14 15 13
5 3 5 21 17 8 14 15 8 4 3 3 2 2 3 3 3 8 9 7 6 4 4 4 4 3 3 4 4 2 3 4 4 3 3 3 2 1 4 3 3 5 4 5 5 3 2 2 2 3 5 4 2 2 1 4 5 4 4 4 3 3 2 3 2 2 1 3 2 4 4 3 2 3 3 5 8 9 10 11 11 13 15 15 16 16 17 16
5 2 7 19 13 14 16 8 2 3 4 2 2 1 4 4 4 6 7 6 6 5 5 4 4 4 3 3 3 3 3 3 4 3 3 2 2 1 4 5 3 1 3 3 2 1 1 3 3 2 2 0 2 4 3 4 5 5 5 4 3 2 3 4 2 1 2 3 1 3 4 4 3 3 4 4 6 7 9 11 10 11 12 14 17 18 19 19
3 0 8 19 10 13 13 5 2 5 3 1 1 2 4 4 3 6 6 6 5 3 5 5 3 4 4 3 3 3 3 3 3 3 2 2 3 2 6 7 4 3 3 2 2 2 2 3 3 2 3 4 4 4 5 4 4 5 4 5 4 3 2 1 3 2 2 3 2 2 2 4 3 4 5 5 7 8 9 11 11 10 10 12 16 18 18 19
1 3 5 18 15 13 9 3 3 4 3 3 3 4 5 3 4 6 5 5 4 3 4 4 3 3 3 3 3 3 2 3 3 3 2 2 2 3 6 7 6 5 3 1 1 1 1 2 3 3 3 4 4 4 5 5 4 3 3 5 6 6 6 2 1 3 2 1 2 3 2 4 2 4 7 8 9 10 11 12 11 10 10 12 13 15 16 17
3 0 3 13 19 14 5 3 5 5 2 4 5 4 5 3 3 4 4 4 4 3 3 2 2 3 3 3 4 4 4 4 2 2 2 2 2 3 6 8 6 4 4 4 3 2 2 2 3 4 3 2 2 2 2 3 4 2 3 6 6 8 8 4 2 3 2 1 1 2 3 4 4 5 9 11 11 11 12 13 12 11 11 11 11 12 14 15
3 2 2 7 11 8 3 1 4 4 3 3 4 4 4 3 2 4 5 5 4 4 4 2 2 3 4 5 5 6 7 6 4 2 2 2 2 2 5 7 6 6 8 10 8 4 3 2 2 5 5 4 5 4 3 1 2 2 4 6 6 6 6 3 3 2 2 1 2 3 4 5 8 8 10 11 11 11 12 13 12 12 12 11 10 11 12 13
3 2 1 2 3 4 4 5 4 3 3 3 2 2 4 3 2 4 5 3 2 4 4 3 4 4 4 4 5 3 5 6 5 4 2 1 2 3 4 5 6 9 9 8 7 3 4 3 3 4 3 2 5 3 4 2 1 1 3 5 5 6 6 5 2 2 3 3 2 5 1 4 7 8 10 9 9 9 10 11 11 10 11 12 11 12 14 16
2 1 1 1 1 1 2 3 3 5 5 3 3 2 3 4 3 2 3 2 3 3 3 3 6 5 3 4 5 3 2 4 5 2 1 2 2 3 5 4 4 8 7 5 4 3 5 1 0 3 2 3 0 1 3 3 1 3 3 3 5 5 4 3 2 4 3 3 4 5 4 4 5 8 9 7 7 8 8 9 9 9 11 13 13 14 14 16
2 1 1 2 2 2 1 2 3 6 6 4 3 3 2 4 4 1 1 2 4 4 4 3 4 6 4 4 5 4 2 3 2 1 1 1 2 2 2 2 3 5 5 4 3 3 4 1 1 2 2 3 3 3 2 3 3 4 4 5 5 5 4 3 4 5 3 4 5 4 5 4 2 6 7 4 4 5 5 7 9 11 13 13 13 14 13 14
2 1 1 3 4 1 2 4 3 5 4 3 3 2 1 3 3 2 2 3 2 3 3 5 2 2 4 5 6 4 3 6 5 2 3 3 1 0 1 1 2 4 5 3 2 3 3 1 1 3 3 2 4 3 3 1 1 4 6 7 5 4 4 3 3 2 1 3 4 3 3 2 2 6 6 3 3 5 7 9 10 10 12 13 13 13 12 12
3 2 1 4 3 4 3 3 3 4 3 3 2 1 1 1 0 0 2 2 2 1 2 7 6 2 4 6 6 2 3 6 6 4 5 5 3 3 2 2 3 1 3 1 1 3 3 1 1 4 4 3 3 3 4 3 2 2 3 4 3 1 2 2 3 2 1 2 4 4 3 2 4 7 6 4 5 7 8 9 8 8 10 11 12 12 12 12
3 1 2 4 2 4 3 2 3 3 1 1 1 1 1 1 1 2 3 2 2 1 3 8 7 3 4 4 2 2 5 6 6 6 5 4 3 4 2 2 5 3 1 2 1 2 3 3 1 2 2 3 4 3 4 4 4 2 1 2 1 2 2 3 3 2 1 0 1 2 2 2 4 6 6 7 7 7 7 7 7 8 9 10 11 11 11 11
Wind_Direction
345 345 344 343 343 343 343 342 344 348 350 350 351 351 350 348 345 345 343 340 343 346 343 335 330 324 310 309 314 311 310 302 297 284 248 263 252 210 180 171 172 163 164 170 165 149 129 130 141 146 149 149 148 142 181 215 220 173 155 251 289 228 220 209 188 181 155 142 149 170 179 152 143 143 160 105 77 117 133 87 93 66 78 111 123 136 145 145
344 343 343 342 342 341 341 340 341 345 348 351 352 352 350 348 343 342 340 339 342 345 344 335 331 324 315 322 326 320 316 310 299 274 252 261 208 176 163 157 169 167 165 170 167 152 135 147 155 140 133 132 170 154 171 188 182 214 77 70 260 217 223 239 182 167 159 149 151 171 180 154 143 145 160 134 127 139 124 102 104 91 98 114 125 138 148 145
343 342 342 341 340 340 340 340 341 342 345 351 353 352 351 347 343 338 335 336 339 344 343 333 331 331 335 340 336 329 318 318 300 268 282 267 176 159 152 157 169 167 168 173 170 160 150 154 153 137 118 116 154 159 182 186 164 200 152 202 247 228 250 279 179 177 159 140 150 171 169 143 141 141 140 135 140 152 148 142 128 123 131 131 134 145 150 147
343 341 341 341 340 340 340 341 343 342 344 349 352 352 350 346 342 336 331 331 335 342 343 332 330 338 351 348 339 333 322 333 294 258 352 329 168 154 152 159 165 165 170 173 169 164 147 141 144 134 106 106 147 151 199 222 174 176 174 219 246 256 288 289 194 154 131 141 154 158 148 142 144 139 136 137 143 180 179 166 146 142 145 142 145 152 153 151
342 340 340 340 339 339 340 342 343 343 344 347 349 349 348 344 340 334 328 325 330 338 341 326 319 337 352 351 342 332 337 78 253 264 354 70 158 154 154 156 160 158 162 166 160 151 138 136 138 116 91 113 145 146 225 227 211 248 230 244 261 283 286 277 127 132 130 134 145 148 152 147 137 141 164 159 164 190 174 157 146 147 150 150 152 153 154 156
340 340 341 340 339 339 340 341 342 342 343 345 345 346 345 342 337 333 324 319 325 330 333 303 291 324 345 348 340 334 15 159 267 245 358 145 155 154 153 159 158 148 153 158 147 139 136 135 138 130 119 108 154 187 228 214 191 256 264 248 252 252 252 242 147 152 143 142 157 159 149 132 139 160 176 177 178 130 125 138 144 151 154 153 153 154 158 161
338 340 341 339 339 340 340 340 341 342 343 343 342 343 342 338 334 330 322 314 317 322 319 278 273 304 340 345 338 10 76 260 260 175 151 152 156 153 152 163 163 151 152 153 143 140 140 141 151 142 125 117 175 209 245 216 192 227 262 259 250 240 234 212 159 162 157 155 159 141 135 151 162 159 162 182 182 122 114 132 143 149 152 154 154 157 161 162
338 339 339 338 338 339 338 339 341 342 342 341 340 340 337 335 331 326 320 306 306 312 291 245 253 288 341 349 345 19 353 260 218 164 155 156 159 157 156 160 165 166 158 156 156 148 138 147 162 138 127 170 178 199 248 248 210 218 244 261 257 245 225 189 162 161 159 146 125 132 149 170 165 136 159 181 171 147 126 133 143 145 151 159 159 158 161 162
338 337 336 336 337 337 337 338 341 342 341 340 338 337 333 331 328 323 314 299 297 297 265 220 242 287 347 40 91 39 251 248 177 169 160 162 167 167 167 160 165 171 164 164 165 156 151 156 175 159 149 189 175 198 233 206 234 217 235 259 263 267 225 168 161 160 158 138 131 147 150 147 130 115 162 191 172 154 136 140 145 148 157 165 164 161 163 165
337 336 335 334 334 335 336 338 341 341 340 339 337 334 331 329 326 319 306 288 285 280 232 201 235 289 162 163 95 125 233 342 175 178 169 172 174 174 177 171 168 170 162 166 168 163 163 162 178 159 132 173 176 227 207 164 257 254 253 264 264 274 231 163 160 157 145 140 148 149 133 105 129 148 192 194 174 152 140 147 151 154 163 166 166 165 165 169
336 336 335 334 335 335 336 339 341 341 340 337 335 332 329 327 321 313 297 268 266 257 195 196 213 144 164 135 111 182 287 356 184 176 177 183 182 183 187 183 177 172 161 159 178 176 166 172 179 133 92 216 216 280 269 220 287 293 291 305 296 304 179 154 153 157 140 139 159 126 100 55 303 256 221 176 166 154 148 153 159 161 165 168 169 166 165 170
336 336 336 336 338 338 338 340 341 342 340 336 333 332 330 325 316 302 277 249 245 216 180 182 166 154 148 90 193 211 26 25 174 177 187 188 189 196 197 193 188 183 172 161 186 186 175 178 167 123 204 222 323 289 296 282 294 287 294 332 311 358 70 153 144 162 152 132 157 121 87 269 227 242 215 160 156 152 153 157 163 166 167 168 170 167 167 170
336 337 339 340 340 340 340 342 342 342 339 336 335 334 330 321 309 284 249 229 218 191 170 157 156 157 134 34 234 210 352 6 179 190 197 190 192 205 204 201 199 194 187 178 187 189 187 195 125 103 205 72 307 262 315 311 305 288 296 75 305 9 14 188 141 159 147 122 161 146 117 242 220 223 179 151 154 152 158 164 166 168 170 170 172 172 170 171
338 339 342 343 342 342 342 343 343 342 339 337 338 337 330 321 306 251 220 214 195 177 164 148 156 151 138 261 244 185 247 272 198 202 202 195 185 190 201 198 197 194 191 182 179 189 194 205 54 59 249 196 247 304 334 327 339 314 314 18 49 28 277 214 144 160 140 140 172 160 306 256 223 203 181 157 159 160 165 169 169 170 173 172 173 175 175 177
340 342 344 344 343 342 342 343 343 342 340 341 344 340 336 336 317 228 204 195 177 167 155 142 165 157 56 288 264 177 245 236 213 211 206 201 184 167 184 184 188 190 189 180 162 187 191 192 66 68 277 313 23 337 339 338 353 0 39 318 341 57 274 268 156 171 140 149 180 165 295 272 248 176 168 166 165 165 169 173 172 174 176 175 176 176 179 183
342 344 344 343 342 341 342 342 342 342 340 345 351 349 355 3 11 166 169 162 155 155 142 136 180 177 94 293 261 138 227 241 258 227 204 206 199 178 161 159 167 178 188 192 190 189 174 167 129 174 273 339 130 70 2 5 353 349 83 217 300 52 6 323 158 185 129 118 187 214 251 281 312 158 156 166 173 170 172 176 176 178 179 178 177 178 181 184
343 344 342 341 341 340 341 341 342 341 340 351 4 16 38 52 95 116 121 127 130 130 120 132 183 192 249 282 284 120 255 291 307 248 207 211 207 179 143 135 136 155 169 190 202 205 158 163 167 164 322 347 147 102 65 359 318 318 26 89 283 76 117 150 154 191 147 132 190 227 245 262 321 149 159 168 176 175 176 179 179 180 182 180 178 180 184 185
343 342 341 339 338 338 339 340 341 341 340 355 26 64 73 86 101 107 112 116 115 98 75 133 114 88 260 291 291 255 288 309 324 279 206 205 203 190 152 131 123 133 130 109 166 178 155 178 101 132 327 75 129 104 125 227 195 152 58 69 343 348 41 157 178 192 165 161 195 202 237 255 260 147 165 176 178 181 183 181 180 182 183 182 180 183 187 189
343 341 339 337 336 336 337 339 341 339 340 358 61 102 88 94 96 98 112 116 119 92 58 237 158 126 220 261 284 292 304 308 314 260 186 178 189 189 142 122 119 118 125 84 118 180 148 105 81 147 208 162 176 162 166 201 161 134 130 115 111 342 317 231 249 227 177 173 212 195 221 242 232 169 174 183 182 185 185 182 183 185 186 185 183 185 188 192
342 340 338 335 333 333 335 339 341 339 343 359 72 126 73 57 48 24 63 133 199 206 225 219 185 237 280 272 295 317 326 316 290 218 173 165 168 166 109 88 88 73 118 130 157 195 139 150 185 171 183 189 197 192 176 172 142 119 110 105 124 235 293 265 264 251 183 170 231 216 222 240 234 193 182 180 182 188 186 186 189 188 189 190 186 186 189 195
341 339 337 334 332 332 334 338 340 342 353 11 50 105 84 58 43 309 309 305 259 240 247 240 207 255 278 271 290 329 358 343 335 27 165 162 149 149 144 41 79 64 196 148 142 116 126 181 202 182 188 194 189 186 166 132 126 99 104 82 52 197 264 259 252 269 186 177 235 224 229 251 240 207 184 175 181 192 192 190 193 191 191 192 191 190 188 191
340 339 337 334 333 331 334 338 340 349 15 37 58 87 134 17 357 259 243 318 297 271 238 266 269 275 276 271 269 253 81 20 359 344 172 148 119 153 154 63 111 160 274 102 109 120 173 217 214 202 187 171 155 154 140 124 133 110 108 101 338 241 280 285 285 321 167 185 250 216 216 249 241 209 188 182 185 196 199 196 194 191 190 193 195 193 187 181
341 341 339 336 333 331 335 340 341 3 26 57 73 76 23 357 4 4 158 307 297 300 217 260 239 256 285 284 241 160 119 134 128 279 191 138 124 173 123 91 130 139 78 101 121 146 188 248 228 201 156 147 184 126 113 83 68 140 143 142 228 247 1 298 300 350 115 191 228 172 203 258 248 214 200 192 191 196 202 202 199 195 197 200 198 194 189 183
343 343 340 336 334 332 336 341 358 9 9 82 87 45 6 2 18 59 95 111 297 299 236 214 205 214 257 296 163 137 127 194 165 214 188 132 119 147 129 132 126 109 158 148 131 141 212 248 209 146 137 154 193 100 111 107 302 254 192 174 190 189 183 224 281 357 26 248 241 132 32 298 234 208 212 193 191 196 194 197 203 206 208 207 202 200 197 191
345 343 339 337 333 332 339 351 64 3 352 112 77 5 2 5 8 54 68 80 325 303 256 209 247 233 247 301 199 175 105 161 221 237 175 131 130 130 146 149 115 160 200 133 125 143 254 251 149 120 140 148 167 233 173 159 213 303 230 195 179 170 202 238 311 11 20 326 276 130 57 303 262 215 210 179 184 194 187 193 203 206 206 204 204 204 202 199
346 343 340 337 331 333 350 94 1 358 60 106 18 350 357 357 346 91 81 59 32 311 314 142 225 255 288 327 327 81 69 30 279 1 65 109 133 113 117 166 60 177 176 130 136 180 266 262 147 145 159 138 158 243 218 161 135 301 244 193 171 168 203 238 271 37 45 291 287 147 150 272 304 252 216 180 187 195 189 198 204 202 201 202 205 205 202 200
347 345 341 338 333 337 353 171 336 356 108 16 347 346 348 344 350 131 74 47 40 295 314 298 313 42 327 314 47 78 107 243 336 36 36 29 7 69 106 189 216 154 164 115 94 216 208 338 99 145 142 131 156 242 220 157 131 235 233 156 148 168 197 212 171 176 219 257 321 358 132 234 303 279 220 171 179 200 202 206 204 201 202 202 206 206 203 201
350 349 345 344 345 348 352 327 337 20 59 336 332 341 342 337 152 119 80 70 10 314 291 289 313 316 309 357 42 78 185 241 62 342 340 28 22 35 92 186 184 156 100 109 144 249 207 112 156 156 134 145 191 220 190 153 155 237 210 150 148 170 179 167 155 197 248 27 322 307 113 160 278 287 244 168 179 206 212 210 203 199 201 202 206 207 206 204
354 351 349 354 0 8 9 345 343 27 342 337 336 337 337 342 114 69 75 91 3 344 238 338 344 310 330 26 21 16 14 33 88 279 327 22 18 30 94 182 158 126 57 100 159 243 310 164 174 134 110 194 226 237 172 160 197 222 159 148 137 148 152 127 145 173 45 39 267 256 172 166 276 291 259 178 195 215 216 215 206 200 201 202 206 207 207 206
356 353 350 355 360 9 1 340 349 352 336 336 335 330 328 89 77 56 60 81 28 306 268 345 317 318 28 61 15 5 37 29 16 19 14 18 15 28 55 352 86 97 25 51 110 248 325 319 168 101 92 234 243 256 172 176 202 165 100 108 80 61 67 70 90 106 76 289 258 234 191 156 289 283 236 197 231 229 213 209 207 202 202 203 205 206 204 204
355 351 343 343 343 343 346 344 347 341 334 333 332 333 3 68 59 82 81 53 24 326 351 342 301 7 55 90 50 2 36 28 0 26 31 10 23 30 20 0 39 57 14 20 35 328 1 13 349 325 323 333 349 108 103 196 213 117 101 104 102 20 27 42 5 65 134 251 267 234 168 136 193 271 300 316 319 309 250 219 209 203 203 203 203 203 202 201
354 347 337 332 326 309 307 323 325 327 325 325 334 0 81 49 33 80 344 338 5 330 339 302 306 29 71 89 58 11 38 43 8 35 47 24 40 51 46 23 5 71 41 337 343 5 22 31 328 314 339 14 32 76 6 10 40 91 118 105 108 37 32 106 279 156 185 243 270 233 131 138 213 232 346 347 346 341 318 277 244 223 214 207 202 201 201 200
356 352 345 335 323 311 310 313 312 316 318 320 344 51 82 73 44 350 315 335 27 320 318 312 343 46 75 71 48 27 47 38 352 24 44 49 57 58 50 29 19 107 142 187 40 32 39 333 350 356 347 3 40 65 1 356 30 49 135 126 127 133 120 189 228 159 210 243 283 319 170 201 250 325 1 357 354 349 348 347 329 283 244 222 209 204 201 201
1 0 0 358 355 348 341 330 317 317 327 341 56 65 66 76 15 338 341 299 284 337 350 353 8 41 56 50 24 55 63 35 10 37 36 39 48 17 0 13 13 32 110 77 63 69 112 23 353 6 335 346 20 67 202 209 290 301 184 138 127 148 147 182 202 166 182 223 307 328 203 183 161 142 27 7 354 359 5 1 358 348 312 244 211 206 204 204
4 7 12 10 7 1 351 341 331 331 345 42 76 64 65 71 286 321 333 287 288 334 339 5 41 46 37 21 5 35 83 64 23 46 44 48 54 6 344 351 358 12 54 66 42 45 107 148 315 311 288 347 355 315 260 143 202 262 139 95 101 161 154 150 177 175 164 144 72 248 213 214 179 163 16 8 7 12 10 3 4 360 344 314 214 202 204 206
13 19 19 12 4 356 349 346 343 339 346 73 72 55 73 117 268 268 280 293 313 313 335 12 36 47 24 5 358 2 40 65 43 48 41 48 57 16 354 315 340 12 46 95 69 17 84 295 311 327 321 342 357 309 3 88 166 253 52 91 196 175 134 119 179 253 79 120 168 258 310 336 321 88 358 358 9 15 10 5 2 356 352 348 303 220 209 205
20 18 17 9 359 351 348 347 343 338 357 80 75 67 133 176 271 246 280 307 308 355 67 45 20 34 33 33 5 340 359 38 36 52 34 25 33 1 346 309 333 11 21 106 111 40 105 219 306 351 329 307 331 316 314 33 62 107 93 231 232 130 109 110 127 16 44 126 179 5 44 15 19 349 339 353 11 14 8 4 1 358 359 355 341 317 264 221
4 358 9 360 353 348 347 347 344 353 59 72 72 87 99 13 344 300 306 319 324 37 68 81 45 53 65 74 23 343 1 32 12 46 61 28 23 2 351 317 337 3 349 33 88 18 64 59 291 317 293 295 334 28 353 342 6 83 124 250 95 111 127 23 100 137 111 145 130 21 43 47 37 334 332 353 8 9 4 5 8 3 358 351 340 332 312 264
8 28 2 351 351 351 0 5 13 50 67 63 67 78 81 4 356 343 336 356 53 55 55 64 66 61 56 82 85 8 32 59 32 59 74 36 50 42 22 329 315 354 353 22 75 320 16 75 284 298 314 320 354 36 23 327 336 21 36 12 34 111 151 93 94 144 149 155 154 67 21 35 14 325 336 348 352 0 4 7 13 9 360 352 341 334 322 293
18 71 339 346 351 6 32 40 50 50 56 74 86 58 27 4 349 350 3 30 52 62 61 47 45 71 64 53 73 48 42 47 47 71 62 35 89 16 21 14 318 341 10 39 59 45 11 66 7 306 329 7 26 14 9 339 346 10 33 23 1 349 22 79 50 49 112 137 156 122 78 52 307 328 339 347 347 352 3 7 10 11 7 0 350 342 335 315
29 82 328 347 3 69 62 54 49 36 67 60 32 30 24 34 2 349 1 29 52 67 83 82 64 75 87 53 43 36 50 43 31 63 72 33 72 60 15 27 319 324 19 39 31 33 31 75 87 335 353 48 62 312 344 73 51 48 61 32 346 342 43 89 60 346 47 101 142 134 124 190 251 345 337 355 355 348 357 5 5 9 13 11 2 354 350 345
48 88 338 352 25 86 71 54 3 39 82 50 30 40 19 36 25 350 353 19 50 65 58 64 63 53 59 68 52 42 70 59 12 43 91 34 61 111 326 332 321 334 63 49 337 323 104 98 76 28 344 130 241 290 340 68 71 63 59 30 351 16 62 104 131 287 10 34 31 108 113 200 221 9 2 0 356 348 358 2 356 359 7 12 8 3 1 0
57 148 357 4 38 95 73 48 5 38 48 1 55 39 20 40 21 358 8 22 32 56 42 31 40 52 47 49 63 62 67 65 27 47 108 43 30 356 318 331 5 46 65 49 319 324 63 74 55 8 315 305 288 305 343 17 51 47 25 17 14 358 347 167 165 153 69 22 10 78 111 215 237 359 3 356 357 3 8 2 358 356 359 9 11 8 7 5
58 230 347 12 44 90 88 84 84 59 26 11 41 23 11 41 38 20 24 20 14 53 59 27 13 52 56 47 70 80 74 86 52 30 76 82 9 343 346 360 23 41 47 29 279 339 33 66 78 68 16 348 335 333 339 351 25 44 351 357 7 359 360 14 81 66 69 28 59 109 180 230 262 350 1 360 4 15 13 4 3 2 1 11 14 10 10 9
40 272 287 5 35 64 94 157 121 98 70 48 50 27 11 29 34 25 36 35 26 59 84 45 15 56 54 47 64 48 42 87 99 16 49 55 322 331 359 4 18 46 41 25 40 93 89 77 102 116 131 163 193 241 269 313 350 11 356 355 1 7 11 22 58 51 82 212 49 132 212 266 313 5 12 3 3 12 9 3 5 3 359 6 15 13 10 12
62 41 306 346 17 42 62 100 95 96 101 82 58 25 26 33 344 358 44 53 22 41 72 50 23 58 43 49 68 39 25 51 74 77 74 29 317 311 349 359 11 29 31 28 30 69 97 57 82 120 136 164 179 214 250 292 359 351 357 356 355 357 4 42 81 69 140 137 320 223 220 310 336 5 17 5 2 7 4 3 4 359 355 0 12 15 11 14
90 61 8 340 353 16 30 22 36 69 103 111 90 10 12 23 343 359 34 51 12 36 60 26 19 53 54 67 90 50 17 32 44 57 65 8 306 310 343 9 12 9 18 23 17 59 94 45 38 98 107 176 179 224 305 17 66 324 351 350 338 341 359 39 67 225 155 92 301 251 245 345 337 2 17 6 359 3 4 3 0 355 356 1 8 14 16 15
79 118 217 119 41 14 41 19 36 66 68 78 87 47 15 30 47 23 359 7 20 38 72 33 8 21 57 100 112 95 38 36 28 26 43 17 0 346 356 9 359 359 15 16 2 70 103 77 352 102 32 335 332 312 350 37 12 314 332 322 312 320 343 9 281 249 170 142 247 266 315 327 335 1 10 11 2 2 3 355 353 359 4 5 8 12 17 15
74 75 309 46 88 162 129 20 49 69 60 53 60 53 44 50 50 358 304 28 16 6 70 83 349 353 29 75 102 107 114 104 57 295 193 52 24 33 29 6 337 2 32 27 357 68 106 114 248 123 71 357 352 344 17 48 2 326 309 284 278 277 276 270 264 260 225 217 240 283 311 296 7 4 356 19 12 356 1 357 0 9 7 5 7 10 13 13
84 111 309 43 57 23 12 16 43 67 44 31 60 52 61 65 42 346 3 80 83 344 50 111 133 37 45 62 86 97 161 155 146 189 169 126 43 98 144 202 266 351 21 37 351 28 85 101 287 93 79 338 318 336 353 7 255 278 282 277 277 284 288 285 279 294 327 285 300 5 344 286 15 358 345 8 12 4 16 12 9 8 3 3 6 5 5 7
103 150 141 94 47 353 2 13 49 73 36 18 89 110 25 36 45 56 24 55 138 166 142 148 148 100 48 57 76 98 204 166 158 194 180 158 169 186 189 187 179 1 3 38 355 13 77 77 350 63 61 289 281 331 321 300 273 276 303 317 315 300 306 300 287 299 342 308 327 20 33 334 344 348 346 2 21 26 20 10 7 1 358 3 2 359 359 358
73 111 67 101 80 353 6 9 26 72 92 298 157 123 42 332 261 119 84 359 356 45 157 156 145 98 60 62 78 214 213 190 194 213 192 162 172 184 188 184 166 155 147 128 47 5 108 105 82 88 71 281 279 316 317 351 26 334 311 30 1 274 311 317 299 306 350 88 51 50 33 345 337 346 357 1 17 35 23 5 5 357 353 356 355 355 356 353